GFSSGP_850_spd_132.txt.gz
Wind_Speed
9 6 4 11 7 8 17 20 22 23 1 1 7 10 10 19 11 7 5 12 22 29 30 27 24 21 18 16 16 16 16 15 13 11 8 7 9 10 12 12 11 11 11 10 9 7 6 6 6
9 8 11 11 10 14 16 21 24 21 2 7 6 7 12 4 17 24 32 21 22 30 30 27 24 22 19 17 17 17 16 15 13 10 8 7 8 10 12 11 9 10 10 9 7 6 5 5 6
10 8 14 6 15 18 18 22 17 20 13 12 5 3 11 7 21 23 25 23 20 30 29 26 25 22 19 17 17 18 17 16 13 11 8 7 8 10 11 10 8 8 8 8 6 5 5 5 6
5 10 12 13 22 22 27 22 26 23 10 12 9 7 2 8 10 14 24 22 19 24 25 26 24 22 19 18 17 17 17 15 13 11 9 9 9 10 10 9 8 7 7 6 6 6 6 6 6
14 15 11 17 26 25 22 25 32 25 9 12 14 11 5 8 11 13 19 18 18 20 22 26 24 22 20 18 17 16 16 14 12 10 9 9 9 10 11 10 8 7 6 6 6 6 6 7 7
14 19 14 18 25 24 24 33 32 21 13 9 12 13 11 16 12 14 20 19 19 22 21 26 25 22 20 18 17 16 14 13 12 11 10 9 9 10 11 10 8 7 7 6 6 7 7 7 8
18 14 18 23 22 22 24 33 22 23 20 16 14 14 15 10 16 17 20 19 21 21 20 28 27 24 21 19 17 16 14 12 11 10 10 9 10 11 11 10 8 7 6 6 7 8 8 9 9
27 15 26 23 20 25 24 25 24 29 26 20 21 11 16 14 20 20 21 21 22 20 21 30 28 26 24 22 19 17 15 13 11 11 10 10 11 12 12 11 10 8 7 7 8 9 9 10 11
26 16 18 27 27 21 22 19 25 10 10 16 23 18 8 9 16 23 22 24 24 21 23 26 30 29 27 25 22 19 17 14 13 12 12 12 12 12 12 11 11 9 9 8 8 9 11 12 12
20 17 30 24 23 23 25 24 25 7 8 15 21 10 19 11 13 21 26 30 31 27 27 29 31 33 28 26 26 23 20 18 16 14 13 13 11 8 10 7 9 10 10 10 10 10 11 13 13
29 29 24 25 32 33 24 22 20 13 14 21 23 19 22 18 18 21 27 35 41 39 30 34 31 30 28 24 27 26 23 20 18 16 14 13 10 8 7 11 8 11 13 10 10 9 12 13 12
27 33 33 31 32 28 21 29 21 16 17 14 22 20 24 25 22 25 27 27 35 29 37 36 33 31 28 27 19 23 20 20 18 16 14 14 13 12 8 11 12 7 9 4 7 8 9 10 7
31 28 35 37 33 34 30 26 22 25 17 21 16 16 25 11 20 22 27 30 29 40 33 43 32 33 33 27 18 19 16 14 12 12 11 14 13 12 9 11 11 12 6 9 5 9 13 9 5
29 31 31 35 35 32 25 24 26 28 25 23 27 16 11 17 14 22 25 32 25 35 30 41 28 29 34 25 20 25 20 15 15 17 11 6 11 12 10 10 9 12 7 2 9 5 10 12 13
34 29 27 29 33 30 31 27 31 28 29 29 27 27 21 22 23 24 31 34 21 42 39 13 18 29 31 24 22 27 22 19 15 16 17 12 13 10 14 9 10 14 16 19 19 16 13 14 13
25 24 26 30 28 30 28 35 28 33 30 28 30 27 32 28 28 28 32 32 28 33 29 27 32 32 39 32 21 22 18 19 15 13 16 14 11 17 15 14 14 14 19 20 19 18 22 19 21
22 25 33 28 29 28 26 37 24 31 35 30 29 31 30 31 33 34 32 26 26 33 33 24 27 26 31 35 26 22 16 18 13 14 15 14 15 18 21 19 20 21 19 20 20 21 17 16 16
26 32 27 28 24 27 28 30 24 29 31 32 32 33 32 32 37 38 31 27 24 23 34 41 36 28 26 28 24 21 18 18 16 11 13 16 20 19 20 20 20 21 21 22 20 16 6 12 19
29 27 29 28 27 25 27 31 25 24 28 24 34 35 35 36 36 40 33 30 24 27 30 17 18 23 27 22 28 24 21 17 16 16 16 18 18 17 16 18 17 17 17 15 15 9 18 17 10
33 33 31 28 27 27 27 29 26 25 24 26 24 34 35 33 37 37 33 26 25 27 47 24 36 31 27 21 25 23 18 15 16 16 17 16 16 16 16 16 15 13 12 13 14 18 9 4 6
31 31 29 30 26 28 24 27 23 26 25 29 29 34 35 40 39 39 34 32 20 34 37 50 41 33 28 23 24 19 18 19 18 14 13 11 12 10 13 11 10 8 10 13 15 6 8 8 3
30 31 30 31 27 21 21 16 22 23 21 23 26 28 31 36 40 40 34 36 28 21 23 25 28 30 27 25 22 23 24 20 16 12 12 8 8 6 5 4 4 4 5 6 8 9 9 9 11
26 30 30 31 27 25 30 17 17 21 21 23 24 32 29 35 37 40 33 37 34 26 26 26 27 27 29 26 25 23 18 18 17 18 15 15 15 11 8 4 1 7 6 7 9 10 10 15 17
25 27 30 28 23 22 26 23 20 18 24 27 25 28 31 30 35 39 34 35 33 29 27 26 24 24 23 26 22 21 23 22 22 22 20 19 16 17 13 10 10 11 9 11 12 13 13 11 12
19 20 13 20 18 18 24 25 19 26 24 27 26 30 30 28 29 36 38 38 34 29 30 28 25 22 20 21 23 22 21 18 18 21 19 15 16 17 11 13 16 15 13 11 9 8 10 12 11
24 23 9 24 17 19 22 28 26 25 25 29 29 31 32 31 31 34 36 38 37 31 34 29 22 23 27 28 25 26 22 20 20 19 17 19 17 15 17 15 12 8 3 4 6 8 9 11 15
23 18 23 24 21 17 20 22 27 24 28 21 23 33 34 35 31 31 32 40 39 40 34 31 26 25 26 25 24 21 20 20 18 25 16 12 12 14 10 9 7 2 2 6 6 1 9 10 13
26 17 21 8 8 23 10 27 19 29 26 18 18 24 38 36 32 28 34 41 40 38 33 26 26 25 25 23 20 22 23 21 19 15 12 15 13 11 9 8 4 4 4 6 7 5 7 11 12
14 19 18 10 12 5 7 12 27 23 26 17 18 27 34 36 33 35 37 34 33 32 28 26 24 25 23 22 22 23 20 18 18 18 18 15 11 8 6 5 4 1 1 7 10 9 8 8 11
18 23 19 11 16 10 5 6 10 26 20 18 7 31 39 40 37 33 34 33 30 26 29 29 29 25 24 22 20 21 24 23 20 17 13 12 11 10 9 8 8 5 5 9 10 8 9 13 12

GFSSGP_850_spd_135.txt.gz
Wind_Speed
9 6 4 4 1 2 6 9 12 21 16 8 12 11 11 10 9 5 32 15 19 28 29 27 25 23 22 20 19 19 18 17 14 12 11 12 13 15 15 15 15 15 13 11 10 10 9 8 7
8 10 6 6 4 5 7 12 20 22 23 8 11 10 9 6 13 23 39 32 27 29 30 28 26 23 22 21 21 20 19 18 16 13 11 11 12 14 14 13 12 12 11 9 7 6 6 5 6
9 10 4 5 4 12 6 9 18 21 23 4 3 7 7 11 13 25 23 33 27 33 31 28 26 24 22 21 21 22 20 18 16 13 11 12 12 14 14 12 11 11 10 8 6 5 5 5 6
5 6 7 2 11 9 18 17 22 21 33 1 9 5 17 21 28 25 32 27 26 34 30 28 26 24 23 22 22 22 22 19 16 14 12 12 13 14 13 12 11 11 9 7 5 3 3 4 5
9 7 4 5 14 10 14 24 35 20 18 18 12 3 14 27 29 30 32 26 20 30 29 28 27 25 23 23 23 22 21 19 16 14 12 13 12 13 13 12 10 9 8 6 5 4 4 4 4
6 6 2 12 15 11 18 33 29 20 24 26 4 9 13 36 37 32 26 20 18 29 30 30 28 26 24 23 22 21 20 18 16 14 13 12 13 14 13 11 9 8 7 6 5 5 5 5 5
9 3 7 9 11 11 19 37 16 19 16 16 4 7 22 32 30 31 23 18 17 30 33 33 31 27 24 23 22 20 19 16 15 14 12 12 12 13 13 11 9 7 6 5 5 5 5 5 5
9 3 9 10 15 18 21 21 31 31 19 29 20 5 10 30 32 34 24 20 18 25 31 34 33 31 28 25 21 19 17 15 14 13 12 12 12 12 12 10 8 6 5 4 4 4 5 6 6
18 5 13 20 19 15 22 6 29 20 26 5 3 4 1 25 31 34 31 31 24 26 27 37 35 32 28 25 23 19 17 15 14 14 13 12 12 11 10 8 7 5 4 4 4 4 5 6 6
10 12 22 16 11 11 19 17 27 8 4 3 4 0 14 25 31 34 39 41 32 33 28 38 34 31 29 27 25 23 20 18 16 15 13 11 10 9 7 6 4 4 5 5 5 4 5 6 7
5 23 15 11 28 33 25 24 32 14 4 10 11 11 19 25 29 31 38 42 38 37 28 31 34 31 28 27 25 24 22 18 16 13 12 10 9 9 6 7 4 7 7 6 5 5 4 5 6
14 23 24 21 29 25 11 20 14 18 13 23 22 23 21 21 23 24 27 35 31 37 30 27 30 29 24 24 24 22 21 18 16 14 13 12 12 9 4 1 3 4 8 2 3 4 4 6 9
25 13 22 32 36 40 33 20 19 26 28 9 20 18 19 24 23 28 30 20 37 34 44 22 22 26 23 13 15 20 20 18 16 14 12 13 12 10 5 5 3 6 4 4 5 4 5 5 4
13 18 25 32 32 36 25 16 22 34 29 16 13 16 7 27 23 30 25 28 24 40 37 35 35 28 17 19 17 16 17 13 15 13 10 10 12 11 9 7 8 6 6 6 10 4 7 16 12
25 20 19 24 31 24 23 20 29 26 29 17 20 21 15 14 26 27 21 16 18 33 38 45 31 39 27 12 19 14 12 13 10 8 10 7 12 9 14 11 14 12 14 9 13 12 7 12 17
9 10 19 26 21 16 18 30 22 28 22 22 22 22 26 24 25 19 16 14 17 34 43 41 28 25 30 25 22 18 19 20 14 10 13 12 7 16 15 15 16 17 18 18 19 19 21 22 25
9 19 22 17 12 16 18 32 12 21 30 23 25 31 28 33 29 27 23 25 22 32 40 28 33 29 34 31 25 23 16 18 19 18 14 16 12 17 17 19 19 19 16 14 17 19 19 20 17
21 22 16 17 13 12 17 24 17 26 28 26 29 33 35 35 38 27 28 26 26 36 35 38 38 31 35 32 24 26 23 20 20 17 17 15 16 19 19 18 17 17 16 16 17 18 15 12 12
17 13 15 18 16 10 16 26 22 17 22 15 29 32 38 44 36 37 31 23 30 41 37 39 30 39 30 27 33 29 24 19 21 19 20 21 19 18 16 13 16 18 14 10 9 9 10 13 14
22 21 22 18 14 17 23 24 16 15 21 26 21 35 38 44 42 31 30 29 38 37 35 27 27 31 34 29 36 31 26 21 20 21 21 18 17 17 17 16 13 11 6 5 8 8 12 6 6
24 23 23 23 20 21 17 17 25 13 20 31 33 30 41 47 44 39 33 37 41 36 33 32 21 30 33 43 34 27 25 22 22 22 21 21 21 21 17 12 8 5 3 6 8 9 3 6 1
23 19 20 20 20 19 18 13 16 22 17 20 28 28 41 42 42 46 37 43 42 32 29 27 25 38 34 36 30 32 33 27 24 23 22 21 18 15 15 10 8 9 6 5 7 9 8 4 4
20 20 23 22 18 16 29 7 12 15 21 19 20 31 33 43 44 43 43 42 38 33 36 31 33 39 37 28 30 31 30 30 28 25 22 17 15 15 13 11 12 11 13 10 5 5 6 7 11
16 12 19 17 12 18 22 16 14 16 20 19 21 28 29 31 40 44 44 38 39 37 33 36 31 37 38 36 34 32 35 33 29 25 22 18 15 10 11 11 10 11 10 7 6 10 9 7 7
11 10 1 6 13 12 20 17 16 14 17 22 24 24 29 33 31 43 44 45 42 43 39 40 32 30 35 34 32 31 32 27 24 26 22 18 12 14 15 12 12 12 9 7 5 4 5 7 6
11 13 6 6 11 15 19 16 12 25 24 10 27 30 33 33 35 40 44 52 45 47 48 43 44 34 34 32 29 32 29 26 25 22 19 15 15 19 17 14 8 3 2 2 1 3 3 9 11
4 19 15 13 15 6 12 14 9 22 23 20 10 27 32 35 33 39 43 52 51 51 49 46 38 33 31 29 28 28 27 25 27 25 19 16 17 14 11 7 5 4 2 2 2 2 2 6 11
15 8 9 4 5 10 7 6 15 15 22 20 16 11 29 39 31 38 47 49 54 52 49 43 38 37 32 31 32 31 28 28 24 20 22 18 15 13 11 7 6 4 1 2 3 2 4 5 5
4 6 8 4 5 4 4 11 11 10 16 20 17 19 33 30 42 46 47 53 53 52 49 44 38 35 33 29 26 26 25 23 26 22 17 15 13 11 9 8 7 4 1 4 7 4 4 5 8
6 10 7 5 6 6 5 10 7 10 18 11 12 22 34 48 48 49 50 51 50 47 44 41 39 34 29 26 26 24 24 24 22 20 19 16 14 13 11 8 5 3 4 6 7 8 9 12 16

GFSSGP_850_spd_138.txt.gz
Wind_Speed
7 8 6 4 2 3 5 9 4 12 5 4 19 6 5 13 8 5 22 30 22 25 31 30 28 25 24 24 24 22 19 16 13 11 12 13 15 16 17 18 19 17 14 11 11 11 9 8 8
5 4 6 2 4 3 7 5 17 14 7 24 21 11 2 3 6 9 27 31 22 26 33 31 29 26 25 24 24 23 21 18 15 13 12 13 14 16 16 16 16 15 13 12 10 9 7 7 8
4 6 4 4 5 11 7 7 15 9 10 22 17 8 10 7 12 30 27 30 32 36 33 31 30 28 25 24 24 24 22 18 16 14 13 14 14 15 14 14 14 13 11 9 8 7 7 7 8
4 6 5 3 13 8 13 7 12 13 17 14 12 5 6 6 22 26 25 22 26 33 32 30 30 27 25 24 24 24 22 19 15 13 12 13 14 15 13 12 12 11 9 7 6 5 6 7 8
9 3 3 5 14 7 9 15 25 15 8 22 23 5 9 22 21 16 16 20 23 33 32 31 28 26 24 23 23 22 21 19 15 12 11 12 13 13 13 12 11 10 7 5 4 3 4 5 6
6 3 2 14 15 4 8 29 25 21 18 31 2 4 9 17 27 24 23 22 22 32 33 30 28 25 23 23 23 22 21 19 17 14 14 13 13 13 11 10 9 8 7 5 3 3 3 3 4
6 4 6 5 5 6 18 28 11 14 10 24 22 7 10 27 26 25 23 22 24 32 33 33 31 27 24 23 23 23 21 18 16 15 14 13 13 13 12 10 8 6 4 3 3 3 3 4 4
7 4 4 6 12 11 17 8 19 14 15 32 32 8 11 38 34 32 30 26 28 36 36 36 33 30 28 25 23 21 20 18 17 15 14 14 13 13 12 9 7 4 2 1 2 2 3 4 5
12 2 7 10 11 18 13 4 15 12 21 30 24 15 29 44 41 38 33 28 33 37 37 37 35 33 29 27 25 23 20 18 17 16 15 15 13 13 11 9 7 4 2 1 2 2 3 4 5
7 7 12 8 18 6 13 8 18 10 20 26 3 10 37 46 44 41 35 34 35 37 36 36 34 32 30 28 26 24 21 20 18 17 15 12 11 10 9 8 6 3 1 1 2 3 3 4 5
8 18 19 10 22 25 19 20 18 6 6 15 13 17 46 50 48 43 34 28 27 29 29 32 32 29 28 27 25 23 21 18 17 15 13 13 12 12 10 7 9 9 6 4 2 0 3 5 1
7 18 23 8 21 18 9 23 5 12 20 30 31 20 46 49 46 47 40 35 36 37 33 34 29 26 26 23 21 19 18 18 16 14 12 12 12 11 10 11 8 6 8 8 4 7 4 3 4
13 4 12 28 30 34 31 25 23 31 33 33 30 19 36 45 46 43 44 38 36 38 32 29 26 24 23 22 20 19 18 15 13 13 13 13 14 13 11 10 6 4 4 3 5 7 8 7 9
4 9 21 27 28 22 18 21 15 37 24 24 26 19 18 23 33 36 39 43 43 37 37 34 30 29 26 25 24 21 17 14 13 12 10 12 11 10 7 4 6 7 6 8 12 9 9 11 15
21 15 15 20 20 16 22 19 29 42 24 24 26 24 15 11 22 30 28 39 44 41 39 40 38 33 26 22 19 18 17 11 13 13 12 10 11 9 9 9 9 11 10 11 12 11 10 10 13
5 5 12 16 14 10 14 30 23 29 16 22 23 25 22 12 15 23 23 20 35 43 42 36 37 39 34 30 30 20 14 17 14 13 13 12 15 13 13 15 13 12 12 11 12 13 13 15 18
6 12 13 9 8 6 18 26 8 22 21 24 33 31 28 19 19 17 17 16 24 38 43 40 40 30 35 35 27 18 20 15 15 12 12 14 17 16 14 16 14 13 14 15 15 17 19 20 20
10 4 4 7 4 10 12 24 17 19 26 24 28 34 32 27 21 26 21 17 19 31 38 39 43 39 34 33 27 20 21 19 15 14 12 17 20 19 17 14 14 16 18 18 18 18 16 15 15
11 12 9 9 7 8 9 21 13 12 17 19 27 28 35 33 24 29 27 25 28 40 44 43 39 36 37 36 35 33 32 22 21 18 15 18 21 18 18 17 17 18 16 17 19 15 12 13 15
8 13 17 16 13 7 13 22 12 9 10 21 27 31 39 22 29 32 33 33 36 40 45 46 41 43 47 40 36 35 31 26 23 22 20 22 22 19 19 19 18 15 15 15 13 10 10 12 6
15 14 17 15 16 20 11 18 18 6 16 22 30 40 40 31 32 35 36 37 40 47 51 50 45 46 44 42 41 34 26 22 23 24 23 23 21 20 19 19 18 14 15 12 10 9 7 7 3
12 8 16 15 8 12 5 9 16 4 10 12 24 32 42 34 37 42 40 42 45 46 48 46 42 39 41 46 43 36 31 27 27 26 23 24 21 20 19 18 13 11 10 8 8 6 7 7 5
16 10 16 10 13 15 17 3 17 7 9 12 17 34 40 32 40 44 45 44 42 44 48 46 41 41 45 45 39 36 30 26 28 25 22 21 20 18 13 11 11 10 8 8 8 7 7 9 10
11 3 9 3 8 12 18 7 17 14 18 16 15 34 38 32 40 43 47 45 47 49 50 45 42 39 44 39 40 33 31 32 32 27 23 20 15 12 11 11 13 12 11 10 7 7 9 12 8
5 5 2 5 9 11 14 9 21 8 14 20 17 28 28 32 40 46 50 49 51 55 50 47 43 42 39 38 37 33 33 32 30 26 23 20 18 15 13 15 13 10 8 6 10 13 10 7 5
9 11 6 10 13 14 19 9 15 20 25 22 16 30 31 37 44 47 50 52 52 54 52 44 45 43 39 33 32 31 32 29 28 26 22 20 19 16 16 14 9 9 11 11 11 9 8 4 5
3 8 13 8 6 3 4 7 19 20 19 12 18 28 26 35 41 47 48 53 53 58 53 48 44 41 39 36 33 33 29 29 28 23 24 22 18 16 14 11 10 9 9 7 5 4 5 5 6
6 3 3 3 4 9 6 7 8 26 23 10 12 11 30 17 37 44 48 52 56 61 55 50 47 47 43 39 32 29 27 26 23 23 22 19 17 16 13 11 10 8 7 7 6 6 6 7 8
6 3 3 4 5 4 3 5 17 15 2 4 9 18 22 17 37 49 47 48 55 59 57 49 44 40 38 35 33 32 29 24 23 21 19 19 17 14 13 12 11 11 8 5 4 6 7 8 11
3 5 3 7 5 4 2 9 4 3 3 6 11 26 18 23 42 44 45 49 52 52 50 48 45 43 40 37 33 31 28 23 22 22 21 18 18 16 16 14 12 9 6 6 6 7 9 11 15

GFSSGP_850_spd_141.txt.gz
Wind_Speed
9 8 3 4 2 4 5 8 3 4 7 2 23 6 9 7 9 6 5 29 30 33 36 34 30 26 24 24 23 20 18 15 13 13 13 14 14 15 15 16 15 14 12 10 10 10 8 6 5
8 6 6 3 4 3 7 5 15 7 11 19 11 14 6 6 11 1 26 29 28 34 36 35 31 28 25 24 23 21 18 16 15 14 15 16 17 17 18 17 16 13 10 10 10 8 6 6 5
8 9 6 4 5 10 10 8 2 4 12 8 10 9 7 6 9 5 22 30 32 38 35 34 30 28 26 24 23 22 19 17 15 15 16 17 17 17 17 17 15 13 11 9 8 7 6 6 5
7 7 3 3 13 10 10 2 5 4 13 11 3 8 8 16 6 17 25 31 33 35 33 32 29 27 25 24 23 22 20 17 14 13 14 16 17 17 16 15 14 12 10 8 8 7 6 6 6
12 4 2 4 12 7 5 11 13 3 5 4 9 8 10 21 18 17 23 26 34 35 33 31 29 27 25 24 23 22 21 18 15 13 14 15 16 16 15 15 13 11 9 7 5 5 6 7 8
7 3 1 12 21 2 7 26 22 8 12 18 10 12 7 13 13 20 29 27 30 32 33 31 28 26 25 24 24 23 20 18 16 14 14 15 15 14 13 13 11 9 6 5 4 4 4 5 6
6 4 6 4 5 6 15 16 7 5 5 14 13 4 6 14 15 22 27 31 35 35 35 33 30 27 25 23 23 22 20 18 16 14 14 15 15 14 13 10 7 6 4 3 2 2 2 3 4
7 4 4 6 12 10 8 8 14 11 9 17 14 6 9 26 22 26 30 33 39 36 35 34 32 30 27 25 23 21 19 17 15 13 12 13 13 13 11 9 7 5 4 2 1 1 2 3 4
10 3 6 8 9 14 3 4 0 6 11 10 8 17 30 28 31 32 34 34 39 38 36 35 34 30 27 25 24 22 19 17 15 14 13 13 13 12 11 9 8 6 5 3 2 2 3 4 4
6 6 12 7 17 4 6 6 6 6 12 19 24 24 19 34 38 39 38 38 40 40 38 36 35 31 30 27 25 23 21 18 17 15 14 13 12 11 11 9 7 4 3 3 3 3 3 4 6
7 15 15 5 17 19 4 10 8 4 9 18 13 20 15 40 43 42 40 38 43 41 40 38 33 32 28 28 27 24 22 19 17 15 13 13 13 13 11 8 6 4 3 4 3 2 3 4 5
6 13 24 8 28 16 4 10 3 15 22 24 22 21 14 30 46 44 40 38 39 41 39 37 33 30 28 26 25 23 21 19 17 16 14 14 13 11 11 10 10 6 3 7 2 4 3 4 6
7 3 12 32 26 22 24 17 11 27 28 32 33 30 23 39 45 43 41 39 38 40 40 40 38 34 31 27 24 22 21 17 14 15 14 13 12 10 12 13 10 6 4 4 3 5 6 8 9
5 14 24 25 17 15 17 19 16 42 30 33 30 22 15 40 41 39 40 42 39 40 39 39 38 35 31 30 28 24 20 17 16 15 12 12 12 11 10 11 7 6 6 8 7 8 10 11 12
16 11 12 13 5 8 13 18 30 31 31 34 30 25 16 36 36 38 45 43 38 40 38 41 39 36 34 31 28 23 21 19 16 13 12 13 13 13 12 9 8 7 8 10 11 10 12 12 14
3 3 4 9 11 8 16 27 16 25 22 26 29 25 16 20 44 47 47 44 40 42 40 38 38 36 33 31 26 24 24 21 17 18 16 15 17 16 12 11 10 9 11 12 12 12 14 15 16
4 5 7 6 4 7 16 21 4 16 17 24 27 27 21 12 30 48 51 49 45 41 41 40 37 34 33 31 31 28 22 23 22 21 20 17 18 16 14 10 13 12 12 13 14 14 16 18 19
5 4 2 4 2 6 13 23 12 20 13 22 26 27 24 21 22 35 48 49 47 46 43 40 37 35 37 34 31 26 22 25 23 22 22 18 18 18 16 13 14 13 14 15 17 17 19 18 16
10 12 7 5 9 9 6 14 9 7 19 15 22 29 27 21 22 27 38 42 46 48 46 42 40 38 34 39 34 30 31 27 25 27 22 21 20 20 18 13 11 14 17 18 19 19 15 12 13
9 10 13 5 6 6 9 17 9 4 9 16 23 22 28 28 25 29 35 45 46 43 44 43 39 36 36 38 40 36 31 32 30 28 25 23 23 20 14 12 14 16 18 18 17 14 11 11 10
9 13 8 6 7 15 9 18 14 6 14 18 23 23 27 30 31 33 38 43 44 48 47 44 41 39 39 40 40 32 32 28 28 27 26 22 17 14 13 16 18 17 15 13 13 12 9 6 4
6 4 1 5 5 5 1 7 12 6 10 8 16 19 26 33 34 35 39 41 47 46 44 42 43 40 40 42 38 35 37 35 31 28 23 19 15 17 17 17 16 12 12 12 11 8 5 7 5
9 7 6 4 7 3 6 4 5 8 7 11 10 21 21 26 34 38 40 42 42 46 48 47 44 44 41 40 40 37 39 35 26 23 22 21 17 18 15 15 12 11 11 9 7 6 5 6 9
5 5 2 4 3 8 7 7 17 11 11 8 8 19 15 20 30 36 38 43 45 50 52 52 48 45 43 47 43 40 40 37 30 28 23 19 16 15 12 9 10 9 7 5 5 5 7 10 11
4 6 2 2 4 10 9 9 21 3 5 12 11 13 12 15 30 39 43 48 50 52 54 53 51 48 49 49 45 40 38 36 31 24 20 17 16 12 9 8 7 8 6 5 7 9 11 10 8
7 8 4 6 5 11 9 8 16 13 16 27 30 31 24 18 25 40 47 48 52 53 55 53 53 51 50 47 40 34 32 31 26 22 19 15 14 9 8 8 9 7 5 9 11 9 8 8 9
4 5 9 4 5 3 4 3 23 22 16 14 20 23 19 24 23 38 46 49 51 56 58 56 55 51 48 45 41 36 31 28 25 21 18 15 12 10 9 9 8 6 7 6 5 6 8 10 10
12 4 2 3 5 7 5 4 11 5 19 22 14 7 9 11 22 33 46 53 51 56 57 58 55 51 43 38 40 40 30 24 21 19 16 13 12 10 10 11 9 8 6 5 6 7 9 10 12
2 4 6 4 5 5 3 5 18 18 9 11 15 7 8 12 20 30 44 48 52 56 55 57 52 44 42 40 38 32 28 24 22 18 16 14 13 14 12 10 9 7 6 5 7 8 9 10 13
3 3 2 3 5 5 3 12 5 3 6 5 7 9 11 15 20 27 38 40 47 51 54 51 44 42 44 41 36 30 27 25 20 19 19 17 17 14 11 9 8 7 5 6 8 10 12 13 16

GFSSGP_850_spd_147.txt.gz
Wind_Speed
11 9 6 3 3 2 6 7 2 7 4 4 2 4 7 11 5 2 5 15 27 34 34 32 31 30 27 24 20 17 14 14 15 16 16 15 15 16 18 20 18 16 14 13 13 12 10 8 7
10 10 8 2 4 7 10 9 17 13 5 4 5 5 4 4 10 9 1 16 31 35 35 33 31 30 27 24 21 18 16 16 15 16 16 16 17 18 19 19 17 15 13 12 11 9 8 7 7
11 13 6 4 5 13 12 8 11 13 14 5 5 3 5 2 2 5 4 20 34 36 35 33 32 30 28 25 21 18 16 16 16 16 16 16 17 19 19 18 15 12 10 10 9 7 6 6 6
12 8 1 7 17 19 16 1 1 5 3 3 2 8 5 6 3 2 5 23 36 37 34 33 32 30 28 24 21 18 17 16 16 16 17 17 17 18 17 15 12 11 10 8 7 5 5 4 4
14 4 5 9 22 19 9 6 2 1 2 4 4 5 6 11 12 11 9 23 34 36 35 33 32 30 27 24 22 20 18 17 16 17 18 18 18 17 16 14 12 10 9 7 6 4 4 3 3
8 2 7 18 24 23 13 15 8 7 9 10 6 7 6 7 7 5 17 25 33 37 37 35 32 30 28 25 23 21 19 17 16 16 17 18 17 16 15 13 11 9 8 7 6 6 5 5 4
8 5 17 20 20 23 17 12 11 12 18 19 10 6 7 11 8 8 21 30 35 38 38 36 34 31 27 26 25 22 20 17 16 16 17 17 15 14 13 12 11 10 8 7 6 5 5 4 4
10 4 16 15 17 30 11 6 8 16 18 14 11 8 11 5 8 12 25 31 35 38 37 38 36 33 31 29 26 24 21 19 17 16 16 17 15 14 13 13 11 10 8 7 6 6 5 5 4
13 9 18 26 21 17 3 4 6 5 9 7 11 10 7 13 8 18 26 28 34 37 38 39 38 36 34 32 29 26 23 20 18 17 17 17 17 16 15 13 12 10 9 8 7 6 5 4 5
13 14 24 12 17 16 13 18 16 7 8 10 10 8 8 6 8 22 28 33 36 41 40 41 40 39 37 35 32 30 27 24 21 19 19 19 18 17 15 14 12 11 9 7 6 5 4 4 3
13 23 19 15 21 21 23 20 15 14 14 14 15 7 7 5 7 19 22 32 39 40 41 43 42 39 38 37 36 33 30 26 23 20 20 19 19 18 17 14 11 9 7 6 5 4 3 2 1
14 21 25 22 22 19 15 21 20 24 27 16 17 13 8 8 10 15 22 24 32 40 42 43 41 40 39 38 36 34 31 28 25 22 20 19 19 18 16 14 11 7 6 6 4 2 3 2 2
20 17 19 14 21 32 22 24 22 28 13 18 21 21 17 16 16 17 20 25 28 36 43 45 42 41 41 37 36 33 31 27 23 22 21 21 19 18 17 14 13 9 7 7 4 3 2 2 4
13 19 20 19 31 27 15 22 27 40 26 25 27 32 32 29 27 21 24 29 37 36 45 45 43 42 39 37 35 32 28 26 24 23 22 20 18 19 17 15 14 10 7 5 4 4 4 4 6
13 17 18 23 22 16 22 26 34 27 25 19 20 22 25 24 23 21 28 33 40 43 45 45 44 41 39 35 32 30 28 27 25 23 21 20 20 17 18 17 15 10 7 5 5 6 6 7 8
7 11 13 6 17 22 13 31 30 23 24 30 32 32 28 24 22 20 27 32 38 39 45 45 44 42 38 35 33 32 30 27 25 23 21 20 19 18 16 16 13 9 6 5 6 7 7 8 9
12 15 15 12 13 11 23 22 12 19 17 20 25 28 33 28 27 22 27 31 38 44 45 45 45 41 38 35 33 31 29 28 25 23 22 20 20 19 16 15 11 7 6 5 5 9 9 9 10
18 17 17 13 4 8 14 21 18 20 14 11 17 18 24 24 25 22 26 30 36 41 44 44 45 39 38 35 34 32 30 28 26 24 22 20 19 20 17 14 9 7 7 6 7 8 8 8 11
20 21 24 17 18 15 20 17 14 13 17 13 18 17 16 21 21 20 25 30 33 40 42 43 41 40 39 39 36 35 34 31 28 26 22 21 21 20 18 13 9 7 5 5 7 9 9 9 10
20 23 21 23 19 17 20 23 16 18 17 18 17 20 20 20 20 19 23 29 35 38 41 38 40 39 41 40 38 38 36 32 29 25 25 24 22 22 18 14 10 6 5 7 8 8 7 7 8
21 22 20 22 18 19 19 26 24 23 18 19 24 24 22 21 22 18 21 28 32 37 39 40 41 40 42 42 41 38 33 31 30 28 29 27 24 22 19 15 11 7 8 8 7 6 6 6 2
20 17 22 20 18 18 17 20 19 8 10 17 25 27 24 19 20 19 20 25 31 36 38 41 40 42 42 42 42 39 36 35 34 34 31 29 27 19 16 12 9 9 12 8 6 5 3 2 3
17 17 19 21 21 20 18 12 17 14 15 18 16 28 24 15 17 19 23 26 26 31 37 41 42 44 42 44 41 39 35 35 33 33 30 28 20 14 12 6 7 14 9 7 5 4 3 1 5
14 11 10 7 10 11 19 16 17 18 19 13 12 18 19 15 17 18 22 25 27 27 32 38 43 44 44 43 41 39 38 36 32 34 31 25 20 18 14 7 23 14 9 6 5 4 1 4 7
7 9 7 8 9 11 14 14 19 5 16 15 6 9 9 6 8 16 19 22 27 28 29 35 41 43 44 43 42 40 39 34 31 29 26 25 24 17 15 23 16 12 10 9 6 2 5 5 5
11 14 9 9 12 14 12 12 16 21 25 17 14 9 13 12 5 11 15 22 25 29 32 34 40 41 43 43 40 37 34 32 29 27 25 21 22 15 14 16 13 12 11 8 3 2 2 3 4
4 12 17 16 18 10 8 14 21 19 19 19 23 19 18 17 13 11 8 15 21 25 32 38 40 42 42 39 37 31 35 31 29 25 17 21 17 11 10 10 12 13 8 4 1 1 1 3 5
18 4 4 5 5 9 11 16 13 8 20 22 21 21 24 23 19 12 14 12 19 24 27 34 35 38 36 36 34 33 33 28 25 16 20 19 20 21 15 15 12 11 6 4 3 3 2 4 7
4 3 7 4 4 5 9 7 7 12 12 4 12 20 25 26 26 20 14 12 19 21 23 27 31 36 32 33 35 33 29 25 21 18 26 22 20 18 18 15 14 8 6 4 3 2 4 6 9
14 14 15 6 5 8 10 14 9 4 6 3 11 11 14 22 24 23 15 12 16 20 23 27 29 30 34 36 33 29 28 25 27 30 25 22 20 21 18 16 11 8 4 2 1 3 5 7 8